This demonstration page uses our WeatherBlox Daily Observations layout. Learn more.

Hourly Observations for May 10, 2020

Temp ( °F °C ) Dew Point ( °F °C ) Humidity (%) Winds ( mph kmh ) Pressure ( in mb ) Visibility ( mi km ) Precip ( " mm )
12:15 am 00:15 Clear 34 1 28 -2 81 81 Calm 30.25 1024 10 16.0934 0 0
12:35 am 00:35 Clear 36 2 28 -2 75 75 Calm 30.25 1024 10 16.0934 0 0
12:55 am 00:55 Clear 37 3 27 -3 65 65 S 5 7 30.25 1024 10 16.0934 0 0
1:15 am 01:15 Clear 34 1 27 -3 75 75 SW 5 7 30.25 1024 10 16.0934 0 0
1:35 am 01:35 Clear 34 1 27 -3 75 75 SSW 6 9 30.25 1024 10 16.0934 0 0
1:55 am 01:55 Clear 36 2 27 -3 70 70 SSW 6 9 30.24 1024 10 16.0934 0 0
2:15 am 02:15 Clear 34 1 28 -2 81 81 SSW 7 11 30.24 1024 10 16.0934 0 0
2:35 am 02:35 Clear 34 1 27 -3 75 75 SW 5 7 30.23 1024 10 16.0934 0 0
2:55 am 02:55 Clear 34 1 27 -3 75 75 SSW 5 7 30.24 1024 10 16.0934 0 0
3:15 am 03:15 Clear 34 1 27 -3 75 75 SW 6 9 30.24 1024 10 16.0934 0 0
3:35 am 03:35 Clear 34 1 28 -2 81 81 SW 7 11 30.24 1024 10 16.0934 0 0
3:55 am 03:55 Clear 34 1 28 -2 81 81 SW 6 9 30.24 1024 10 16.0934 0 0
4:15 am 04:15 Clear 34 1 28 -2 81 81 SW 5 7 30.24 1024 10 16.0934 0 0
4:35 am 04:35 Clear 34 1 28 -2 81 81 SW 6 9 30.24 1024 10 16.0934 0 0
4:55 am 04:55 Clear 34 1 28 -2 81 81 SW 7 11 30.23 1024 10 16.0934 0 0
5:15 am 05:15 Clear 36 2 27 -3 70 70 WSW 8 13 30.23 1024 10 16.0934 0 0
5:35 am 05:35 Clear 36 2 27 -3 70 70 SW 8 13 30.23 1024 10 16.0934 0 0
5:55 am 05:55 Clear 36 2 27 -3 70 70 SW 6 9 30.23 1024 10 16.0934 0 0
6:15 am 06:15 Sunny 36 2 27 -3 70 70 WSW 7 11 30.24 1024 10 16.0934 0 0
6:35 am 06:35 Sunny 36 2 27 -3 70 70 WSW 7 11 30.24 1024 10 16.0934 0 0
6:55 am 06:55 Sunny 37 3 28 -2 70 70 W 6 9 30.24 1024 10 16.0934 0 0
7:15 am 07:15 Sunny 37 3 28 -2 70 70 WSW 7 11 30.25 1024 10 16.0934 0 0
7:35 am 07:35 Sunny 39 4 28 -2 65 65 WSW 8 13 30.25 1024 10 16.0934 0 0
7:55 am 07:55 Sunny 43 6 28 -2 57 57 WSW 8 13 30.25 1024 10 16.0934 0 0
8:15 am 08:15 Sunny 45 7 30 -1 57 57 WSW 7 11 30.25 1024 10 16.0934 0 0
8:35 am 08:35 Sunny 45 7 30 -1 57 57 SW 7 11 30.25 1024 10 16.0934 0 0
8:55 am 08:55 Sunny 48 9 30 -1 50 50 WSW 9 15 30.25 1024 10 16.0934 0 0
9:15 am 09:15 Sunny 50 10 30 -1 47 47 SW 13 20 30.26 1025 10 16.0934 0 0
9:35 am 09:35 Sunny 52 11 30 -1 44 44 WSW 10 17 30.24 1024 10 16.0934 0 0
9:55 am 09:55 Sunny 52 11 28 -2 41 41 WSW 10 17 30.24 1024 10 16.0934 0 0
10:15 am 10:15 Sunny 54 12 28 -2 38 38 WSW 10 17 30.23 1024 10 16.0934 0 0
10:35 am 10:35 Sunny 54 12 30 -1 41 41 WSW 9 15 30.23 1024 10 16.0934 0 0
10:55 am 10:55 Sunny 55 13 30 -1 38 38 WSW 10 17 30.22 1023 10 16.0934 0 0
11:15 am 11:15 Sunny 55 13 30 -1 38 38 SW 10 17 30.21 1023 10 16.0934 0 0
11:35 am 11:35 Sunny 57 14 32 0 39 39 W 12 19 30.21 1023 10 16.0934 0 0
11:55 am 11:55 Sunny 57 14 32 0 39 39 SW 9 15 30.21 1023 10 16.0934 0 0
12:15 pm 12:15 Partly Cloudy 59 15 32 0 36 36 W 6 9 30.19 1022 10 16.0934 0 0
12:35 pm 12:35 Partly Cloudy 59 15 30 -1 34 34 SSW 12 19 30.18 1022 10 16.0934 0 0
12:55 pm 12:55 Sunny 59 15 32 0 36 36 SW 6 9 30.18 1022 10 16.0934 0 0
1:15 pm 13:15 Sunny 61 16 32 0 34 34 SSW 13 20 30.16 1021 10 16.0934 0 0
1:35 pm 13:35 Sunny 61 16 32 0 34 34 S 12 19 30.15 1021 10 16.0934 0 0
1:55 pm 13:55 Sunny 61 16 32 0 34 34 SSW 10 17 30.14 1021 10 16.0934 0 0
2:15 pm 14:15 Sunny 63 17 32 0 32 32 S 14 22 30.12 1020 10 16.0934 0 0
2:35 pm 14:35 Sunny 63 17 32 0 32 32 S 13 20 30.11 1019 10 16.0934 0 0
3:15 pm 15:15 Sunny 63 17 32 0 32 32 S 14 22 30.1 1019 10 16.0934 0 0
3:35 pm 15:35 Sunny 63 17 32 0 32 32 S 10 17 30.08 1018 10 16.0934 0 0
3:55 pm 15:55 Sunny 63 17 32 0 32 32 SSW 14 22 30.07 1018 10 16.0934 0 0
4:15 pm 16:15 Sunny 64 18 32 0 30 30 SSW 14 22 30.05 1018 10 16.0934 0 0
4:35 pm 16:35 Sunny 64 18 34 1 32 32 S 12 19 30.04 1017 10 16.0934 0 0
4:55 pm 16:55 Sunny 64 18 32 0 30 30 SSW 13 20 30.03 1017 10 16.0934 0 0
5:15 pm 17:15 Sunny 64 18 34 1 32 32 SW 10 17 30.02 1017 10 16.0934 0 0
5:35 pm 17:35 Sunny 64 18 34 1 32 32 S 14 22 30.01 1016 10 16.0934 0 0
5:55 pm 17:55 Sunny 64 18 32 0 30 30 SW 14 22 30.01 1016 10 16.0934 0 0
6:15 pm 18:15 Sunny 64 18 32 0 30 30 S 14 22 30 1016 10 16.0934 0 0
6:35 pm 18:35 Sunny 64 18 32 0 30 30 S 15 24 30 1016 10 16.0934 0 0
6:55 pm 18:55 Sunny 63 17 32 0 32 32 SSW 15 24 30 1016 10 16.0934 0 0
7:15 pm 19:15 Sunny 63 17 34 1 34 34 SSW 13 20 30 1016 10 16.0934 0 0
7:35 pm 19:35 Sunny 63 17 34 1 34 34 SSW 8 13 30 1016 10 16.0934 0 0
7:55 pm 19:55 Sunny 61 16 34 1 36 36 SSW 8 13 30 1016 10 16.0934 0 0
8:15 pm 20:15 Clear 59 15 34 1 39 39 SSW 6 9 30 1016 10 16.0934 0 0
8:35 pm 20:35 Clear 61 16 34 1 36 36 S 5 7 29.99 1015 10 16.0934 0 0
8:55 pm 20:55 Clear 59 15 34 1 39 39 S 6 9 29.98 1015 10 16.0934 0 0
9:15 pm 21:15 Clear 59 15 34 1 39 39 S 6 9 29.98 1015 10 16.0934 0 0
9:35 pm 21:35 Clear 55 13 34 1 44 44 S 5 7 29.98 1015 10 16.0934 0 0
9:55 pm 21:55 Clear 54 12 37 3 54 54 S 5 7 29.98 1015 10 16.0934 0 0
10:15 pm 22:15 Clear 52 11 37 3 58 58 Calm 29.98 1015 10 16.0934 0 0
10:35 pm 22:35 Clear 50 10 39 4 67 67 S 3 6 29.98 1015 10 16.0934 0 0
10:55 pm 22:55 Clear 46 8 39 4 76 76 Calm 29.98 1015 10 16.0934 0 0
11:15 pm 23:15 Clear 48 9 41 5 76 76 S 3 6 29.97 1015 10 16.0934 0 0
11:35 pm 23:35 Clear 48 9 37 3 66 66 S 5 7 29.96 1014 10 16.0934 0 0
11:55 pm 23:55 Clear 45 7 39 4 81 81 S 3 6 29.96 1015 10 16.0934 0 0

Powered by AerisWeather